Regional Weather Roundup
Issued by NWS

Home | Current Version | Previous Version | Graphics & Text | Print | Product List | Glossary Off
Versions: 1 2 3 4 5 6 7 8 9 10 11 12 13 14 15 16 17 18 19 20 21 22 23 24 25 26 27 28 29 30 31 32 33 34 35 36 37 38 39 40 41 42 43 44 45 46 47 48 49 50

000
ASUS43 KMKX 061711
RWRWI

WISCONSIN REGIONAL WEATHER ROUNDUP
NATIONAL WEATHER SERVICE MILWAUKEE/SULLIVAN WI
1100 AM CST TUE DEC 06 2016

NOTE: "FAIR" INDICATES FEW OR NO CLOUDS BELOW 12,000 FEET WITH NO
SIGNIFICANT WEATHER AND/OR OBSTRUCTIONS TO VISIBILITY.

WIZ001-002-006>008-014>016-023>028-061800-
NORTHWEST WISCONSIN

CITY           SKY/WX    TMP DP  RH WIND       PRES   REMARKS
SUPERIOR ARPT  CLOUDY    27  17  67 SW20G26   29.59S WCI  13
ASHLAND        CLOUDY    30  26  85 MISG      29.59S
HAYWARD        PTSUNNY   25  17  72 SW14G21   29.61R WCI  13
SIREN          FLURRIES  22  14  71 SW15G26   29.65S WCI   9
CUMBERLAND     CLOUDY    23  16  74 SW21      29.65S WCI   8
RICE LAKE      CLOUDY    24  17  76 SW15      29.69S WCI  11
CHETEK         CLOUDY    24  18  78 SW10      29.68F WCI  13
LADYSMITH      PTSUNNY   29  22  75 SW14G21   29.66S WCI  18
EAU CLAIRE     CLOUDY    25  20  81 SW20G26   29.71S WCI  11
MENOMONIE      CLOUDY    25  19  78 SW15      29.72S WCI  13
NEW RICHMOND   CLOUDY    22  14  70 SW22      29.70S WCI   6
OSCEOLA        FLURRIES  23  15  70 SW17G26   29.73F WCI   9
$$

WIZ003>005-009-010-017-018-061800-
NORTH CENTRAL WISCONSIN

CITY           SKY/WX    TMP DP  RH WIND       PRES   REMARKS
MANITOWISH WTR LGT SNOW  30  30 100 S12       29.58F VSB 3/4 WCI  20
ARBOR VITAE    LGT SNOW  32  30  92 S10       29.60F WCI  23
WOODRUFF       LGT SNOW  32  30  92 S10       29.60F WCI  23
RHINELANDER    LGT SNOW  31  30  96 S9        29.63F FOG     WCI  23
EAGLE RIVER    CLOUDY    30  30  98 S7        29.61F FOG     WCI  23
LAND O LAKES   CLOUDY    31  29  92 S9        29.62F FOG     WCI  23
PHILLIPS       LGT SNOW  28  27  95 SW9       29.60F WCI  20
TOMAHAWK       SNOW      30  28  93 S3        29.64F VSB 1/2
MEDFORD        LGT SNOW  29  27  92 SW8       29.64S WCI  21
MERRILL        LGT SNOW  31  30  97 S7        29.66F VSB 3/4 WCI  24
$$

WIZ029-030-035-036-043>047-061800-
CENTRAL WISCONSIN

CITY           SKY/WX    TMP DP  RH WIND       PRES   REMARKS
WAUSAU         LGT SNOW  30  30 100 S9        29.66F VSB 3/4 WCI  22
MOSINEE        NOT AVBL
MARSHFIELD     LGT SNOW  31  29  92 SW10      29.66F FOG     WCI  22
STEVENS POINT  MIX PCPN  30  30 100 S10       29.70F WCI  21
WAUPACA        CLOUDY    34  32  92 S8G16     29.73F FOG     WCI  27
WAUTOMA        CLOUDY    32  30  92 S8        29.73F FOG     WCI  25
WISC RAPIDS    SNOW      32  32 100 SW10      29.71F VSB 1/2 WCI  24
CAMP DOUGLAS   FLURRIES  32  32 100 SW8       29.72F WCI  25
$$

WIZ011>013-019>022-031-037>040-048>050-061800-
NORTHEAST WISCONSIN

CITY           SKY/WX    TMP DP  RH WIND       PRES   REMARKS
ANTIGO         FOG       29  29 100 S12       29.66F VSB 1   WCI  19
SHAWANO        CLOUDY    35  31  87 S8        29.72F WCI  28
OCONTO         CLOUDY    39  33  80 SE12      29.71F WCI  32
STURGEON BAY   CLOUDY    39  32  76 S16G22    29.73F WCI  30
GREEN BAY      CLOUDY    39  36  89 S6        29.72F FOG     WCI  35
MANITOWOC      CLOUDY    39  33  79 S12       29.75F WCI  32
APPLETON       FOG       32  32 100 SW9       29.72F VSB 3/4 WCI  24
CLINTONVILLE   CLOUDY    32  30  93 SW10      29.72F FOG     WCI  24
OSHKOSH        CLOUDY    32  30  92 SW8       29.74S FOG     WCI  25
$$

WIZ032>034-041-042-053>061-061800-
SOUTHWEST WISCONSIN

CITY           SKY/WX    TMP DP  RH WIND       PRES   REMARKS
LA CROSSE      MOSUNNY   31  23  72 SW15      29.78R WCI  20
SPARTA         CLOUDY    31  29  92 W7        29.75S WCI  24
VIROQUA        CLOUDY    28  24  85 W12G20    29.75F WCI  18
BOSCOBEL       CLOUDY    33  28  81 SW9       29.80S WCI  25
PRAIRIE DU CHI MOSUNNY   31  22  69 W16       29.83R WCI  20
PLATTEVILLE    CLOUDY    32  32 100 W13       29.80S WCI  22
$$

WIZ056-057-062-063-064-067-068-061800-
SOUTH CENTRAL WISCONSIN

CITY           SKY/WX    TMP DP  RH WIND       PRES   REMARKS
REEDSBURG      LGT SNOW  32  32 100 SW8       29.75S WCI  25
BARABOO/DELLS  LGT SNOW  32  31  98 SW7       29.74F WCI  26
LONE ROCK      CLOUDY    34  30  85 W14       29.78S WCI  25
MINERAL POINT  LGT SNOW  34  34 100 W13G18    29.76F WCI  25
MADISON        CLOUDY    33  31  92 SW6       29.75F FOG     WCI  28
MIDDLETON      NOT AVBL
WATERTOWN      CLOUDY    32  32 100 SW7       29.75F FOG     WCI  26
MONROE         FOG       32  32 100 SW10      29.76F VSB 3/4 WCI  24
JANESVILLE     CLOUDY    36  36 100 SW6       29.76F WCI  31
$$

WIZ051-052-058>065-066-070>072-061800-
SOUTHEAST WISCONSIN

CITY           SKY/WX    TMP DP  RH WIND       PRES   REMARKS
MILWAUKEE      CLOUDY    41  35  79 SW6       29.74F
WAUKESHA       PTSUNNY   34  32  93 S5        29.74F FOG     WCI  30
MILWAUKEE/TIMM CLOUDY    39  34  81 S6        29.76F WCI  35
RACINE         CLOUDY    39  34  82 CALM      29.75F HAZE
BURLINGTON     CLOUDY    35  33  94 CALM      29.74F FOG
KENOSHA        CLOUDY    37  34  89 W7        29.74F FOG     WCI  32
FOND DU LAC    CLOUDY    34  30  85 SW8       29.74R FOG     WCI  27
SHEBOYGAN      CLOUDY    40  34  79 S9        29.74F WCI  34
WEST BEND      PTSUNNY   37  34  87 S6        29.72F WCI  33
JUNEAU         CLOUDY    32  30  94 S9        29.75F FOG     WCI  24
$$

LSZ147-162-061800-
LAKE SUPERIOR

STATION/POSITION TIME  TEMP    WIND        PRES    WAVE
                       AIR SEA DIR/SP/G            HT/PER
                 (UTC) (F)     (DEG/KT/KT) (MB)    (FT/S)
DEVILS ISLAND    1700   32     230/ 22/ 26 1001.7F
PORT WING        1640   30     200/ 13/ 23 1002.0S
SAXON HARBOR     1640   33     210/  9/ 14 1002.0F
$$

LMZ867-665-643>646-061800-
LAKE MICHIGAN

STATION/POSITION TIME  TEMP    WIND        PRES    WAVE
                       AIR SEA DIR/SP/G            HT/PER
                 (UTC) (F)     (DEG/KT/KT) (MB)    (FT/S)
CHAMBERS ISLAND  1640   39     150/  8/ 16 1006.8F
NORTHPORT PIER   1640   39     150/ 11/ 21 1007.8S
SISTER BAY       1653   39     180/ 18/ 23   N/A
ALGOMA LAKESHORE 1651          210/ 20/ 24   N/A
KEWAUNEE LAKESHO 1642   39     180/ 16/ 21 1007.1F
SHEBOYGAN LAKESH 1700   39     160/ 15/ 16 1007.2F
PORT WASHINGTON  1630   41     160/ 12/ 14 1008.5F
MILWAUKEE LAKESH 1650   40     200/  7/  8   N/A
KENOSHA   LAKESH 1700   39     330/  2/  2 1007.5
$$

TC  - TEMPERATURE IN CELSIUS
VSB - VISIBILITY IN STATUTE MILES
WCI - WIND CHILL INDEX
HX  - HEAT INDEX




USA.gov is the U.S. government's official web portal to all federal, state and local government web resources and services.